EW5860 Weather Reports


time (UTC)temp
F
wind
direction
speed
knots
gust
knots
rain 1hr
in
rain 24hr
in
rain mn
in
humidity
%
barometer
mb
20260508004559 50 280 0.0 0.0 0.00 0.47 0.47 72 1008.5
20260508003106 51 279 0.0 0.0 0.00 0.47 0.47 71 1008.5
20260508001550 53 279 0.0 0.0 0.00 0.47 0.47 66 1008.3
20260508000049 55 279 0.0 0.0 0.00 0.47 0.47 62 1008.2
20260507234549 57 279 0.0 0.0 0.00 0.47 0.47 55 1008.1
20260507233048 61 280 0.0 0.9 0.00 0.47 0.47 49 1007.9
20260507231604 62 280 0.0 0.0 0.00 0.47 0.47 51 1008.0
20260507230051 63 279 0.0 0.9 0.00 0.47 0.47 43 1008.0
20260507224557 64 276 0.0 0.9 0.00 0.47 0.47 37 1007.9
20260507223046 65 276 0.0 1.7 0.00 0.47 0.47 36 1007.9
20260507221545 64 35 0.0 2.6 0.00 0.47 0.47 37 1007.9
20260507220044 65 37 0.9 7.8 0.00 0.47 0.47 37 1008.0
20260507214544 66 209 0.0 1.7 0.00 0.47 0.47 35 1008.0
20260507213054 65 143 0.0 1.7 0.00 0.47 0.47 36 1008.1
20260507211543 64 17 1.7 7.0 0.00 0.47 0.47 36 1008.2
20260507210046 64 279 0.9 6.1 0.00 0.47 0.47 36 1008.0
20260507204553 64 244 0.0 6.1 0.00 0.47 0.47 36 1007.9
20260507203041 64 260 0.9 4.3 0.00 0.47 0.47 37 1007.9
20260507201541 64 61 0.9 10.4 0.00 0.47 0.47 36 1008.0
20260507200040 64 278 2.6 8.7 0.00 0.47 0.47 34 1008.1
20260507194538 64 16 3.5 9.6 0.00 0.47 0.47 34 1008.2
20260507193036 65 254 0.0 5.2 0.00 0.47 0.47 36 1008.5
20260507191532 64 16 0.9 8.7 0.00 0.47 0.47 38 1008.5
20260507190037 62 260 3.5 8.7 0.00 0.47 0.47 35 1008.7
20260507184537 63 266 4.3 9.6 0.00 0.49 0.47 35 1008.8
20260507183029 64 37 0.9 3.5 0.00 0.49 0.47 40 1008.9
20260507181525 63 24 0.9 3.5 0.00 0.49 0.47 39 1009.1
20260507180024 63 73 0.9 7.0 0.00 0.49 0.47 41 1009.2
20260507174529 63 30 0.9 5.2 0.00 0.49 0.47 39 1009.3
20260507173025 62 339 0.9 3.5 0.00 0.49 0.47 43 1009.6
20260507171519 62 127 0.9 4.3 0.00 0.49 0.47 44 1009.9
20260507170018 61 38 0.9 3.5 0.00 0.49 0.47 46 1010.1
20260507164518 60 323 1.7 5.2 0.00 0.50 0.47 44 1010.4
20260507163013 60 328 2.6 7.0 0.00 0.50 0.47 44 1010.7
20260507161511 59 223 1.7 7.8 0.00 0.50 0.47 49 1010.8
20260507160008 58 41 0.9 7.8 0.00 0.50 0.47 50 1010.8
20260507154506 58 259 0.9 8.7 0.00 0.57 0.47 53 1011.0
20260507153005 58 71 1.7 5.2 0.00 0.57 0.47 53 1011.2
20260507151600 56 271 1.7 7.0 0.00 0.57 0.47 54 1011.4
20260507150100 56 320 1.7 5.2 0.00 0.57 0.47 56 1011.6
20260507144559 55 51 1.7 5.2 0.00 0.67 0.47 61 1011.8
20260507143056 55 57 0.9 5.2 0.00 0.67 0.47 59 1012.1
20260507141601 54 129 0.9 3.5 0.00 0.67 0.47 63 1012.1
20260507140111 54 34 0.9 3.5 0.00 0.67 0.47 66 1012.0
20260507134553 53 255 1.7 7.0 0.00 0.69 0.47 67 1012.2
20260507133052 53 241 0.0 7.0 0.00 0.69 0.47 67 1012.4
20260507131602 52 263 0.0 0.9 0.00 0.69 0.47 76 1012.3
20260507130056 52 347 0.9 4.3 0.00 0.69 0.47 75 1012.2
20260507124603 51 341 0.0 3.5 0.00 0.69 0.47 84 1012.2
20260507123056 50 326 0.0 1.7 0.00 0.69 0.47 85 1012.1
20260507121548 50 38 0.0 1.7 0.00 0.69 0.47 87 1012.2
20260507120046 50 222 0.0 0.9 0.00 0.69 0.47 88 1012.1
20260507114547 49 227 0.0 0.9 0.00 0.69 0.47 90 1012.0
20260507113043 49 238 0.0 3.5 0.00 0.69 0.47 92 1011.8
20260507111544 49 266 0.0 0.9 0.00 0.69 0.47 94 1011.7
20260507110038 49 244 0.0 3.5 0.00 0.69 0.47 94 1011.3
20260507104539 48 276 0.0 2.6 0.00 0.69 0.47 95 1011.3
20260507103033 49 255 0.0 2.6 0.00 0.69 0.47 96 1010.9
20260507101541 49 320 0.0 2.6 0.00 0.69 0.47 96 1010.7
20260507100035 49 333 0.0 1.7 0.00 0.69 0.47 96 1010.6
20260507094533 49 11 0.0 0.0 0.00 0.69 0.47 96 1010.5
20260507093038 49 11 0.0 0.0 0.00 0.69 0.47 96 1010.3
20260507091531 49 11 0.0 0.0 0.00 0.69 0.47 96 1010.2
20260507090033 49 11 0.0 0.0 0.00 0.69 0.47 96 1010.1
20260507084529 49 11 0.0 0.0 0.00 0.69 0.47 96 1010.0
20260507083037 49 11 0.0 0.0 0.00 0.69 0.47 96 1010.2
20260507081530 49 11 0.0 0.0 0.01 0.69 0.47 96 1010.1
20260507080026 49 11 0.0 0.0 0.01 0.69 0.47 95 1010.1
20260507074529 50 11 0.0 0.0 0.02 0.69 0.47 95 1010.3
20260507073025 50 11 0.0 0.0 0.03 0.69 0.47 95 1010.6
20260507071524 50 11 0.0 0.0 0.03 0.68 0.46 95 1010.6
20260507070024 50 11 0.0 0.0 0.04 0.68 0.46 95 1010.6
20260507064523 50 11 0.0 0.0 0.04 0.67 0.45 95 1010.7
20260507063026 50 11 0.0 0.9 0.07 0.66 0.44 94 1010.8
20260507061520 50 9 0.0 1.7 0.09 0.65 0.43 94 1010.4
20260507060022 51 36 0.0 3.5 0.13 0.64 0.42 94 1010.7
20260507054516 51 274 0.0 1.7 0.27 0.63 0.41 94 1010.7
20260507053016 51 257 0.0 2.6 0.30 0.59 0.37 94 1011.0
20260507051513 51 110 0.0 0.9 0.31 0.55 0.33 93 1010.4
20260507050011 52 315 0.0 1.7 0.28 0.50 0.28 92 1010.3
20260507044508 52 240 0.0 1.7 0.14 0.36 0.14 91 1010.4
20260507043007 53 202 0.0 2.6 0.07 0.28 0.07 89 1010.0
20260507041607 55 323 0.0 2.6 0.02 0.24 0.02 87 1009.7
20260507040105 55 321 0.0 1.7 0.00 0.22 0.00 86 1009.8
20260507034600 56 19 0.0 2.6 0.00 0.22 0.22 85 1009.7
20260507033053 57 251 0.0 8.7 0.00 0.22 0.22 86 1009.9
20260507031549 58 65 0.0 7.0 0.00 0.22 0.22 88 1009.3
20260507030053 58 306 0.0 3.5 0.00 0.22 0.22 87 1009.4
20260507024546 59 321 0.9 7.0 0.00 0.22 0.22 86 1009.1
20260507023041 60 34 1.7 7.0 0.00 0.22 0.22 87 1008.9
20260507021544 61 145 0.0 3.5 0.00 0.22 0.22 88 1009.0
20260507020040 62 345 0.9 3.5 0.00 0.22 0.22 87 1009.0
20260507014540 63 277 1.7 6.1 0.00 0.22 0.22 87 1008.9
20260507013040 63 248 0.9 3.5 0.00 0.22 0.22 89 1008.6
20260507011541 64 232 1.7 8.7 0.00 0.22 0.22 90 1008.8
20260507010138 64 246 0.9 2.6 0.00 0.22 0.22 91 1008.5